Location: Dzierzno
(50.6159°N, 19.2852°E)
Time: 03:09:17
(UTC+00:00)

Cosmos 468 Rocket - Pass Details

Date: 18 November 2025
Orbit: 740 x 774 km, 74.0° (Epoch: 04 December)

Event Time Altitude Azimuth Distance (km) Brightness Sun altitude
Rises 15:59:07 0° 337° (NNW) 3,240 7.3 -10.4°
Reaches altitude 10° 16:01:34 10° 342° (NNW) 2,305 6.5 -10.8°
Maximum altitude 16:06:43 56° 61° (ENE) 896 4.0 -11.6°
Drops below altitude 10° 16:11:46 10° 140° (SE) 2,267 6.2 -12.4°
Sets 16:14:09 0° 144° (SE) 3,182 7.0 -12.7°
